レモン彗星

507P/Lemmon (2022)

English version
Home page
Updated on July 25, 2025

---------------------------------------------------------------------

・ プロフィール

符号 507P
再発見日 2023年10月10日
再発見光度 20.2等
再発見者 David Rankin (Mt. Lemmon)

・ 軌道要素

                    Epoch = 2022 Dec.  7.0 TT
     T = 2022 Dec.  5.44656 TT        Peri. = 108.82178
     e = 0.5697458                    Node  = 233.40474 2000.0
     q = 2.7111175 AU                 Incl. =  17.10566
       a =  6.3011999 AU   n = 0.06231164   P =  15.82 years

・ 光度変化

        m1 = 13.0 + 5 logΔ + 10.0 log r(t - 250)

---------------------------------------------------------------------

軌道要素は、CBET 5548に掲載されたものです。
光度グラフはComet for Windowsで作成したものです。

---------------------------------------------------------------------

Copyright(C) Seiichi Yoshida (comet@aerith.net). All rights reserved.